Terminal Aerodrome Forecast
Issued by NWS

Home | Current Version | Previous Version | Text Only | Print | Product List | Glossary On
Versions: 1 2 3 4 5 6 7 8 9 10 11 12 13 14 15 16 17
000
FTUS43 KDDC 222340
TAFGCK
TAF
KGCK 222340Z 2300/2324 16010KT P6SM FEW020
     FM230900 VRB05KT 1/4SM FZFG BKN002
     FM231400 01008KT 1/2SM FZFG OVC003
     FM231600 02008KT P6SM OVC003
     FM231700 05008KT P6SM SCT020=

USA.gov is the U.S. government's official web portal to all federal, state and local government web resources and services.